{"data":{"norad_id":53434,"intl_designator":"2022-097AY","name":"STARLINK-4498","alt_names":[],"object_type":"PAYLOAD","status":"ACTIVE","operator":null,"country":"US","launch_date":"2022-08-10","launch_site_code":"AFETR","launch_vehicle":null,"mission":null,"orbit_class":"UNKNOWN","rcs_meters":null,"size_class":null,"mass_kg":null,"dimensions":null,"purposes":["comms"],"wikipedia_slug":null,"has_3d_model":false,"image_url":null,"decayed_at":null,"tle_current":{"epoch":"2026-07-02T06:06:51.885216Z","epoch_age_seconds":7008643,"freshness":"OLD","line1":"1 53434U 22097AY  26183.25476719  .08211162  12559-4  32062-3 0  9993","line2":"2 53434  53.2003 267.3162 0007255 340.6276  19.4498 16.43489145216681","mean_motion":16.43489145,"eccentricity":0.0007255,"inclination_deg":53.2003,"raan_deg":267.3162,"arg_perigee_deg":340.6276,"mean_anomaly_deg":19.4498,"bstar":0.00032062,"rev_number":21668,"period_min":87.618467355317,"perigee_km":151.7964174364,"apogee_km":161.27822988003,"semimajor_km":6534.6743236582,"source":"CELESTRAK","updated_at":"2026-07-02T09:00:32.491050Z"}}}